Flag for Australia Weather past 2 weeks in Geraldton, Western Australia, Australia

Now
52 °F

Cool.


Feels Like: 48 °F
Forecast: 54 / 67 °F
Wind: 9 mph from Northeast

Location: Geraldton Airport

Current Time: Jul 6, 2015 at 1:44:55 AM

Latest Report: Jul 6, 2015 at 12:00 AM


Visibility: N/A

Pressure: 30.18 "Hg

Humidity: 94%

Dew point: 50 °F

Location of GeraldtonLocation

Historic Weather in Geraldton — Graph

°F

Geraldton temperature yesterday

Maximum temperature yesterday: 71 °F (at 3:00 PM)
Minimum temperature yesterday: 50 °F (at 12:00 AM)
Average temperature yesterday: 58 °F

Past Weeks' High & Low Weather Summary

 TemperatureHumidityPressure
High76 °F (Jun 28, 3:00 PM)99% (Jul 4, 2:00 AM)30.38 "Hg (Jul 4, 2:00 AM)
Low46 °F (Jun 24, 2:00 AM)28% (Jun 26, 2:00 PM)29.81 "Hg (Jun 21, 3:00 AM)
Average59 °F70%30.21 "Hg
* Reported Midnight between Jun 20 and Jun 21 — Midnight between Jul 5 and Jul 6, Geraldton, Weather by CustomWeather, © 2015

Note: Actual official high and low records may vary slightly from our data, if they occured in-between our weather recording intervals... More about our weather records

Advertising

Geraldton weather history for previous 24 hours

 ConditionsComfort  
Time TempWeatherWind HumidityBarometerVisibility
12:00 AM
Mon, Jul 6
52 °FCool.9 mph94%30.18 "HgN/A
11:00 PM
Sun, Jul 5
51 °FCool.6 mph94%30.19 "HgN/A
9:00 PM54 °FCool.2 mph91%30.19 "HgN/A
8:00 PM54 °FCool.5 mph89%30.19 "HgN/A
6:00 PM63 °FMild.3 mph72%30.15 "HgN/A
5:00 PM67 °FMild.9 mph62%30.15 "HgN/A
3:00 PM71 °FPassing clouds.3 mph52%30.14 "Hg19 mi
2:00 PM70 °FMild.2 mph51%30.14 "HgN/A
12:00 PM68 °FPartly sunny.6 mph60%30.19 "Hg19 mi
11:00 AM67 °FMild.5 mph69%30.20 "HgN/A
9:00 AM56 °FPassing clouds.8 mph88%30.21 "Hg19 mi
8:00 AM51 °FCool.12 mph94%30.20 "HgN/A
6:00 AM51 °FPassing clouds.12 mph96%30.16 "Hg16 mi
5:00 AM51 °FCool.10 mph97%30.15 "HgN/A
3:00 AM51 °FCool.9 mph96%30.17 "HgN/A
2:00 AM51 °FCool.8 mph96%30.17 "HgN/A
Weather by CustomWeather, © 2015

See weather overviewHow to use our weather pages